Regional Weather Roundup
Issued by NWS

Home | Current Version | Previous Version | Graphics & Text | Print | Product List | Glossary On
Versions: 1 2 3 4 5 6 7 8 9 10 11 12 13 14 15 16 17 18 19 20 21 22 23 24 25 26 27 28 29 30 31 32 33 34 35 36 37 38 39 40 41 42 43 44 45 46 47 48 49 50
000
ASUS43 KLMK 281402
RWRKY
KENTUCKY REGIONAL WEATHER ROUNDUP
NATIONAL WEATHER SERVICE LOUISVILLE KY
1000 AM EDT TUE JUL 28 2015

NOTE "FAIR" INDICATES FEW OR NO CLOUDS BELOW 12,000 FEET
WITH NO SIGNIFICANT WEATHER AND/OR OBSTRUCTIONS TO VISIBILITY.

KYZ001>023-026-027-061>063-070>075-281500-
WESTERN AND SOUTH CENTRAL KENTUCKY

CITY           SKY/WX    TMP DP  RH WIND       PRES   REMARKS
PADUCAH        SUNNY     85  77  77 SW6       29.98R HX  95
HENDERSON      SUNNY     82  73  74 SW3       29.97S
OWENSBORO      SUNNY     84  75  74 CALM      29.99R HX  91
HOPKINSVILLE   SUNNY     86  77  74 W2        30.00R HX  96
BOWLING GREEN  MOSUNNY   84  73  69 CALM      30.01R HX  90
GLASGOW        NOT AVBL
$$

KYZ024-025-028>034-038-045-046-053-281500-
NORTH CENTRAL KENTUCKY

CITY           SKY/WX    TMP DP  RH WIND       PRES   REMARKS
LOUISVILLE/SDF MOSUNNY   83  75  77 VRB3      29.98R HAZE    HX  90
LOUISVILLE/LOU MOSUNNY   82  76  81 SE5       29.99S
FORT KNOX      CLOUDY    78  75  90 VRB3      29.99S FOG
$$

KYZ035>037-039>044-047>052-055>060-089>105-281500-
NORTHEAST KENTUCKY

CITY           SKY/WX    TMP DP  RH WIND       PRES   REMARKS
LEXINGTON      SUNNY     82  75  79 S6        30.02S
COVINGTON      MOSUNNY   82  74  76 E5        30.01S
FRANKFORT      MOSUNNY   80  74  81 SW6       30.00S
$$

KYZ054-064>069-076>088-106>120-281500-
SOUTHEAST KENTUCKY

CITY           SKY/WX    TMP DP  RH WIND       PRES   REMARKS
JACKSON        SUNNY     79  73  82 CALM      30.05S
LONDON         SUNNY     80  70  71 W3        30.05R
SOMERSET       NOT AVBL
MIDDLESBORO    PTSUNNY   74  73  95 CALM      30.06F
MONTICELLO     MOSUNNY   82  75  79 CALM      30.06S
$$




USA.gov is the U.S. government's official web portal to all federal, state and local government web resources and services.